Location: ??????????
(42.1626°N, 44.1160°E)
Time: 14:52:04
(UTC+00:00)

Helios 1A Rocket - Pass Details

Date: 03 March 2021
Orbit: 564 x 584 km, 98.3° (Epoch: 21 April)

Event Time Altitude Azimuth Distance (km) Brightness Sun altitude
Rises 15:58:57 0° 160° (SSE) 2,768 6.2 -12.5°
Reaches altitude 10° 16:01:05 10° 159° (SSE) 1,871 5.3 -12.9°
Maximum altitude 16:05:07 73° 75° (ENE) 601 2.8 -13.6°
Drops below altitude 10° 16:09:10 10° 351° (N) 1,875 5.7 -14.4°
Sets 16:11:19 0° 349° (N) 2,774 6.6 -14.7°
